Woodruff, WI

8:40 PM CDT on September 28, 2016 (GMT -0500)
Lakeland-Lee Memorial

Weather History for KARV - October, 2011

Change the Weather History Date:

Sunday, October 9, 2011

  Actual Average Record
Temperature  
Mean Temperature 69 °F -  
Max Temperature 79 °F 55 °F 79 °F (2011)
Min Temperature 59 °F 35 °F 20 °F (1929)
Cooling Degree Days 4    
Growing Degree Days 19 (Base 50)    
Moisture  
Dew Point 48 °F    
Average Humidity 50    
Maximum Humidity 72    
Minimum Humidity 24    
Precipitation  
Precipitation 0.00 in - - ()
Sea Level Pressure  
Sea Level Pressure 30.24 in    
Wind  
Wind Speed 7 mph (SSW)    
Max Wind Speed 12 mph    
Max Gust Speed 16 mph    
Visibility 10 miles    
Events      
Averages and records for this station are not official NWS values.
T = Trace of Precipitation, MM = Missing Value Source: NWS Daily Summary

Daily Weather History Graph

Daily Weather History Graph

Search for Another Location

Airport or City:

Trip Planner

Search our weather history database for the weather conditions in past years. The results will help you decide how hot, cold, wet, or windy it might be!

Date:

Astronomy

Oct. 09, 2011 Rise Set
Actual Time 7:07 AM CDT 6:24 PM CDT
Civil Twilight 6:37 AM CDT 6:54 PM CDT
Nautical Twilight 6:02 AM CDT 7:28 PM CDT
Astronomical Twilight 5:28 AM CDT 8:03 PM CDT
Moon 5:04 PM CDT (10/9) 4:47 AM CDT (10/9)
Length of Visible Light 12h 16m
Length of Day
11h 16m
Waxing Gibbous, 95% of the Moon is Illuminated
Oct 9
Waxing Gibbous
Oct 11
Full
Oct 19
Last Quarter
Oct 26
New
Nov 2
First Quarter

Hourly Weather History & Observations

Time (CDT) Temp. Dew Point Humidity Pressure Visibility Wind Dir Wind Speed Gust Speed Precip Events Conditions
12:15 AM 66.0 °F 51.1 °F 59% 30.20 in 10.0 mi SSW 10.4 mph - N/A   Clear
12:35 AM 65.3 °F 50.9 °F 60% 30.21 in 10.0 mi SSW 10.4 mph - N/A   Clear
12:55 AM 64.8 °F 50.9 °F 61% 30.21 in 10.0 mi SSW 9.2 mph - N/A   Scattered Clouds
1:15 AM 65.5 °F 50.9 °F 59% 30.21 in 10.0 mi SSW 9.2 mph - N/A   Overcast
1:35 AM 65.8 °F 50.9 °F 58% 30.21 in 10.0 mi SSW 8.1 mph - N/A   Overcast
1:55 AM 65.7 °F 50.9 °F 59% 30.22 in 10.0 mi SSW 6.9 mph - N/A   Mostly Cloudy
2:35 AM 65.5 °F 50.5 °F 58% 30.22 in 10.0 mi SSW 5.8 mph - N/A   Overcast
2:55 AM 65.7 °F 50.2 °F 57% 30.22 in 10.0 mi SSW 6.9 mph - N/A   Overcast
3:15 AM 64.9 °F 49.8 °F 58% 30.22 in 10.0 mi SSW 6.9 mph - N/A   Scattered Clouds
3:35 AM 64.2 °F 49.8 °F 59% 30.22 in 10.0 mi South 6.9 mph - N/A   Scattered Clouds
3:55 AM 63.7 °F 49.8 °F 61% 30.22 in 10.0 mi SSW 5.8 mph - N/A   Mostly Cloudy
4:15 AM 64.4 °F 50.2 °F 60% 30.23 in 10.0 mi SSW 5.8 mph - N/A   Overcast
4:35 AM 64.4 °F 50.0 °F 59% 30.24 in 10.0 mi SSW 3.5 mph - N/A   Overcast
4:55 AM 63.5 °F 50.0 °F 61% 30.24 in 10.0 mi SSW 5.8 mph - N/A   Mostly Cloudy
5:15 AM 63.0 °F 50.2 °F 63% 30.25 in 10.0 mi South 4.6 mph - N/A   Mostly Cloudy
5:35 AM 62.4 °F 50.0 °F 64% 30.25 in 10.0 mi South 4.6 mph - N/A   Mostly Cloudy
5:55 AM 61.9 °F 49.8 °F 65% 30.25 in 10.0 mi South 4.6 mph - N/A   Scattered Clouds
6:15 AM 60.6 °F 50.0 °F 68% 30.26 in 10.0 mi South 5.8 mph - N/A   Clear
6:35 AM 59.4 °F 49.6 °F 70% 30.26 in 10.0 mi South 4.6 mph - N/A   Clear
6:55 AM 59.4 °F 49.6 °F 70% 30.27 in 10.0 mi South 5.8 mph - N/A   Clear
7:15 AM 59.2 °F 49.8 °F 71% 30.27 in 10.0 mi South 5.8 mph - N/A   Clear
7:55 AM 59.4 °F 50.2 °F 72% 30.28 in 10.0 mi South 6.9 mph - N/A   Clear
8:15 AM 60.1 °F 50.2 °F 70% 30.28 in 10.0 mi South 5.8 mph - N/A   Clear
8:35 AM 60.8 °F 50.7 °F 69% 30.28 in 10.0 mi South 5.8 mph - N/A   Clear
8:55 AM 61.9 °F 50.7 °F 67% 30.28 in 10.0 mi SSW 6.9 mph - N/A   Clear
9:15 AM 63.5 °F 50.4 °F 62% 30.28 in 10.0 mi South 6.9 mph - N/A   Clear
9:35 AM 64.9 °F 50.4 °F 59% 30.29 in 10.0 mi South 8.1 mph - N/A   Clear
9:55 AM 66.7 °F 50.7 °F 56% 30.29 in 10.0 mi SW 5.8 mph - N/A   Clear
10:15 AM 69.1 °F 51.8 °F 54% 30.29 in 10.0 mi SW 8.1 mph - N/A   Clear
10:35 AM 71.8 °F 53.1 °F 52% 30.29 in 10.0 mi West 5.8 mph - N/A   Clear
10:55 AM 72.0 °F 52.7 °F 51% 30.29 in 10.0 mi WSW 4.6 mph - N/A   Scattered Clouds
11:15 AM 72.0 °F 52.0 °F 49% 30.28 in 10.0 mi WSW 3.5 mph - N/A   Clear
11:35 AM 72.9 °F 51.8 °F 47% 30.28 in 10.0 mi SSW 4.6 mph - N/A   Clear
11:55 AM 74.8 °F 52.5 °F 46% 30.28 in 10.0 mi SW 3.5 mph - N/A   Clear
12:35 PM 77.0 °F 52.0 °F 42% 30.27 in 10.0 mi SSE 6.9 mph - N/A   Clear
12:55 PM 77.0 °F 51.4 °F 41% 30.26 in 10.0 mi Calm Calm - N/A   Clear
1:15 PM 77.0 °F 50.9 °F 40% 30.26 in 10.0 mi Calm Calm - N/A   Clear
1:35 PM 77.4 °F 50.0 °F 38% 30.25 in 10.0 mi West 5.8 mph - N/A   Scattered Clouds
2:15 PM 79.7 °F 45.9 °F 30% 30.24 in 10.0 mi South 8.1 mph 16.1 mph N/A   Clear
2:35 PM 79.7 °F 44.6 °F 29% 30.23 in 10.0 mi SSW 10.4 mph - N/A   Clear
2:55 PM 79.7 °F 44.1 °F 28% 30.23 in 10.0 mi South 9.2 mph - N/A   Clear
3:15 PM 79.7 °F 43.7 °F 28% 30.22 in 10.0 mi SSW 8.1 mph 16.1 mph N/A   Clear
3:35 PM 79.7 °F 43.5 °F 28% 30.22 in 10.0 mi SSW 9.2 mph - N/A   Clear
3:55 PM 79.7 °F 41.7 °F 26% 30.22 in 10.0 mi South 10.4 mph - N/A   Clear
4:15 PM 79.7 °F 41.2 °F 25% 30.22 in 10.0 mi SSW 10.4 mph - N/A   Clear
4:35 PM 79.7 °F 41.5 °F 26% 30.22 in 10.0 mi SSW 11.5 mph - N/A   Clear
4:55 PM 79.7 °F 40.8 °F 25% 30.22 in 10.0 mi SSW 6.9 mph - N/A   Clear
5:15 PM 78.1 °F 38.8 °F 24% 30.22 in 10.0 mi SSW 6.9 mph - N/A   Clear
5:35 PM 77.0 °F 40.1 °F 27% 30.22 in 10.0 mi South 5.8 mph - N/A   Clear
5:55 PM 76.5 °F 41.4 °F 28% 30.22 in 10.0 mi Calm Calm - N/A   Clear
6:15 PM 73.2 °F 41.9 °F 32% 30.22 in 10.0 mi South 4.6 mph - N/A   Clear
6:35 PM 72.0 °F 43.2 °F 35% 30.22 in 10.0 mi South 4.6 mph - N/A   Clear
7:15 PM 70.9 °F 46.4 °F 42% 30.23 in 10.0 mi Calm Calm - N/A   Clear
7:35 PM 66.4 °F 45.0 °F 46% 30.24 in 10.0 mi South 3.5 mph - N/A   Clear
7:55 PM 66.6 °F 45.3 °F 46% 30.24 in 10.0 mi Calm Calm - N/A   Clear
8:15 PM 65.8 °F 45.7 °F 48% 30.24 in 10.0 mi Calm Calm - N/A   Clear
8:35 PM 63.1 °F 45.9 °F 53% 30.24 in 10.0 mi Calm Calm - N/A   Clear
8:55 PM 62.2 °F 46.4 °F 56% 30.25 in 10.0 mi Calm Calm - N/A   Clear
9:35 PM 59.4 °F 46.9 °F 63% 30.24 in 10.0 mi Calm Calm - N/A   Clear
9:55 PM 57.4 °F 46.8 °F 68% 30.25 in 10.0 mi Calm Calm - N/A   Clear
10:15 PM 57.0 °F 46.8 °F 69% 30.25 in 10.0 mi Calm Calm - N/A   Clear
10:35 PM 56.8 °F 47.3 °F 70% 30.25 in 10.0 mi Calm Calm - N/A   Clear
10:55 PM 56.8 °F 48.2 °F 73% 30.25 in 10.0 mi Calm Calm - N/A   Clear
11:15 PM 56.3 °F 48.6 °F 75% 30.25 in 10.0 mi Calm Calm - N/A   Clear
11:35 PM 56.8 °F 48.6 °F 74% 30.25 in 10.0 mi Calm Calm - N/A   Clear
11:55 PM 55.9 °F 48.0 °F 75% 30.25 in 10.0 mi Calm Calm - N/A   Clear